Theta_e
348 347 346 346 347 344 343 343 342 346 343 344 343 343 345 344 341 342 342 343 343 343 342 339 333 331 334 335 332 333 332 333 336 332 330 332 332 330 330 331 331 332 335
347 347 348 347 346 346 344 344 344 345 346 344 345 346 343 343 343 344 344 341 343 342 342 343 341 334 331 334 336 334 331 329 333 336 335 329 330 331 333 332 328 330 332
348 344 346 348 347 349 348 347 345 345 346 344 344 343 343 343 344 344 343 342 342 343 342 343 343 337 332 331 334 330 329 329 333 334 336 335 335 332 328 330 334 332 321
347 349 347 348 350 348 347 348 346 345 344 344 343 342 345 344 344 344 344 344 344 342 342 344 345 339 335 330 332 331 333 333 332 331 331 332 332 333 331 324 327 327 332
348 347 348 347 350 346 347 345 347 345 342 342 342 342 344 345 347 345 343 346 344 343 340 343 344 344 341 336 331 334 334 334 333 333 333 334 334 334 332 330 323 329 326
348 348 350 350 348 347 345 343 345 344 343 342 341 345 346 346 343 342 341 338 346 344 342 341 342 343 343 340 332 330 332 332 332 331 330 332 331 331 333 333 333 324 330
349 347 346 350 345 347 346 343 344 342 341 343 345 346 347 344 345 348 345 344 347 344 344 344 342 343 342 341 334 331 328 329 331 332 332 333 337 337 336 333 333 333 327
347 348 349 345 345 346 347 348 346 345 346 347 348 347 347 347 348 347 346 348 347 342 343 343 342 342 342 342 341 338 335 332 335 339 337 337 337 337 339 339 336 333 332
351 350 346 344 341 345 347 348 348 348 347 347 347 345 346 346 346 347 345 346 346 343 343 342 341 340 340 340 340 342 343 343 344 344 343 343 341 339 338 340 340 339 334
351 351 346 342 343 346 346 347 348 348 348 346 344 345 347 347 346 346 344 345 345 345 344 342 342 340 338 339 337 337 337 338 339 339 340 341 341 341 341 341 341 341 339
351 354 347 346 338 347 348 346 347 348 349 350 351 351 349 346 346 345 344 342 344 346 346 344 343 341 341 340 339 337 334 333 331 330 330 329 327 326 325 326 331 334 336
351 351 348 346 337 345 343 346 346 348 349 349 350 348 348 348 346 347 345 344 344 344 344 345 343 343 341 341 337 336 335 335 334 334 333 332 329 326 323 321 319 319 321
350 350 347 337 337 341 340 339 337 342 347 348 349 347 344 344 345 342 345 346 346 345 344 344 345 343 343 342 339 337 337 337 335 334 331 327 321 318 316 315 315 315 315
350 354 353 349 332 338 342 341 339 340 341 345 345 347 346 343 344 342 341 341 343 344 344 343 342 342 342 342 340 337 338 336 335 332 322 317 315 312 312 312 313 313 312
355 353 353 352 348 345 345 344 339 330 328 329 333 332 344 345 341 339 337 339 340 342 342 343 343 341 340 341 341 340 338 336 335 325 320 317 314 310 311 312 312 313 313
350 351 353 355 353 349 349 350 346 340 340 340 340 333 335 331 337 335 334 335 335 336 337 337 338 338 340 339 340 340 337 337 333 324 322 317 313 311 312 314 316 315 314
351 351 352 353 353 354 349 347 348 348 346 345 344 341 341 341 337 340 335 335 332 333 332 330 335 336 340 340 341 340 335 333 331 326 320 321 322 321 322 322 319 315 315
345 349 352 351 352 354 353 352 350 348 349 350 346 346 345 339 343 342 339 337 334 334 334 331 327 336 340 341 341 335 331 330 328 327 319 319 321 322 322 322 322 320 321
339 341 348 350 351 352 352 352 353 351 349 348 346 345 344 339 339 343 341 341 338 335 322 319 325 333 339 341 340 337 331 329 327 320 319 320 321 321 322 322 321 322 320
339 338 343 349 351 352 352 352 354 355 354 349 348 345 344 343 345 342 344 341 340 336 319 318 330 338 341 340 338 333 329 327 321 320 320 320 322 323 322 322 322 321 322
343 342 341 340 341 340 341 343 347 349 353 350 348 349 349 342 336 344 345 343 340 337 319 317 335 340 340 339 333 329 324 323 321 321 321 322 323 321 321 322 322 323 322
353 352 350 348 347 346 345 348 351 352 351 349 346 346 347 346 340 344 345 344 340 330 321 323 325 335 336 330 330 327 324 321 320 321 321 323 323 321 321 320 320 319 319
355 357 356 356 355 355 354 355 356 356 354 352 350 348 345 340 338 338 346 344 341 330 328 324 319 322 329 331 332 329 326 324 322 322 323 324 323 323 322 320 320 319 319
350 352 353 355 354 352 352 353 352 353 353 352 351 342 339 337 341 344 344 342 342 334 328 324 326 325 327 328 330 332 329 326 322 320 319 322 323 322 322 322 320 320 319
349 346 350 352 352 353 351 349 351 351 349 349 350 345 337 337 342 343 340 341 341 337 330 326 320 319 319 324 328 331 326 324 322 321 322 322 324 324 324 321 321 320 319
343 339 338 344 342 342 345 351 353 351 348 350 345 340 338 340 345 347 344 340 340 338 330 325 318 318 317 317 320 319 315 315 321 321 318 319 320 322 322 320 317 320 320
Wind_Speed
4 6 8 9 5 7 6 9 14 14 11 11 8 9 7 9 7 7 5 11 9 6 6 11 13 15 15 13 11 12 11 12 10 9 8 8 8 8 7 7 8 8 9
6 8 6 7 8 9 7 5 9 11 11 10 9 9 8 8 6 4 5 10 10 7 7 8 14 16 16 15 13 12 11 12 11 10 8 8 7 7 8 7 7 8 8
6 6 7 6 7 6 4 10 12 12 11 10 9 6 8 8 7 5 6 9 8 7 4 7 11 18 17 16 16 15 13 13 11 11 10 9 8 7 8 9 9 8 9
7 9 6 9 8 8 4 7 15 15 14 10 6 3 4 6 6 7 8 9 8 6 3 4 7 17 19 17 16 15 13 13 11 11 11 10 10 10 9 10 11 11 10
6 5 7 6 8 6 1 6 13 14 13 8 6 4 4 5 4 7 7 5 6 7 5 4 5 11 18 20 18 17 16 14 12 11 11 11 11 10 11 9 10 11 12
5 6 6 6 7 5 5 9 10 10 10 9 9 7 5 5 7 2 5 7 5 7 8 6 6 6 12 19 19 19 18 16 15 14 13 12 12 12 12 13 12 13 14
5 5 3 4 4 3 6 7 10 12 13 11 8 8 5 6 6 4 5 8 8 7 5 6 6 7 7 13 17 17 18 18 16 16 17 16 13 14 14 14 14 14 16
4 5 3 3 1 1 4 6 9 11 11 9 7 4 2 4 4 5 6 9 9 7 7 6 4 6 6 8 12 15 17 19 18 18 17 17 16 15 14 14 17 21 19
3 4 3 4 3 3 5 6 6 8 8 9 7 2 0 3 4 5 7 8 9 8 8 6 4 5 4 4 7 10 12 14 15 16 15 15 16 17 17 17 18 17 22
4 5 4 3 5 4 5 5 7 7 6 7 8 7 7 8 3 3 6 8 9 9 10 6 5 4 5 3 3 5 5 6 6 8 9 10 11 13 15 17 19 20 21
7 6 6 3 7 7 5 5 8 8 7 6 5 7 7 8 6 5 5 10 11 11 12 11 7 6 5 4 1 1 3 3 3 3 5 7 9 11 13 14 16 17 17
8 8 6 4 7 8 8 8 8 9 9 7 5 7 9 12 13 12 10 11 13 15 15 13 13 8 8 6 4 4 2 3 4 5 7 9 10 12 13 13 14 15 17
8 5 4 2 5 5 5 7 11 12 13 10 10 10 7 6 9 10 12 14 15 18 16 17 17 14 13 10 8 6 5 4 4 6 8 10 11 11 11 11 12 12 14
9 7 8 6 4 7 6 4 8 9 14 14 16 13 11 10 12 12 12 15 18 20 19 18 15 15 17 14 11 10 7 5 4 6 6 7 9 9 9 9 9 10 11
12 9 9 11 9 8 6 6 7 8 9 9 12 14 16 15 13 14 14 15 14 18 18 18 19 14 15 17 14 12 8 6 6 4 4 7 9 7 6 6 7 8 8
17 15 12 12 13 11 9 8 6 8 9 9 10 11 12 15 15 15 14 14 15 15 19 17 20 17 13 15 14 12 9 8 7 4 4 5 4 1 2 4 6 7 7
20 19 17 14 14 12 12 12 11 11 11 11 10 8 9 13 18 19 16 14 14 15 15 16 18 17 16 13 13 9 10 7 8 6 4 1 4 5 5 5 7 7 7
24 24 22 20 18 16 13 15 15 15 15 13 12 12 9 21 24 20 19 17 14 15 14 16 17 18 16 13 9 9 8 8 8 8 7 4 3 1 2 3 4 5 7
25 27 28 27 23 21 19 19 18 17 17 16 15 16 15 22 29 19 18 15 14 13 12 13 14 16 16 14 12 10 10 9 8 9 11 8 6 5 6 6 5 5 5
25 26 30 31 28 26 26 23 21 22 19 19 19 20 19 18 14 16 19 13 13 13 10 9 10 11 13 13 11 10 9 9 8 6 6 7 7 7 8 10 9 7 7
29 29 29 30 30 28 26 27 27 27 23 20 19 20 17 12 16 16 14 13 12 12 10 9 11 12 14 14 11 9 9 10 9 10 9 7 8 7 6 10 9 7 8
27 29 29 29 32 33 29 24 24 22 22 25 25 22 22 14 10 18 13 14 13 12 11 11 14 15 14 14 13 12 10 11 12 10 13 12 10 6 6 7 2 4 5
28 27 29 27 29 29 29 27 27 27 27 28 26 22 24 24 23 22 20 16 16 15 12 11 13 14 13 13 16 15 14 13 12 11 10 11 12 9 7 6 8 8 8
27 28 32 29 28 31 31 30 30 31 33 35 30 21 17 16 16 21 25 20 20 17 14 13 13 12 12 13 15 16 15 14 12 11 10 12 14 14 10 11 9 10 10
21 24 29 28 29 28 31 32 32 33 35 39 36 28 21 23 19 12 25 22 22 20 17 15 13 12 10 9 9 13 14 15 11 6 2 7 9 10 10 11 12 11 10
16 16 20 19 18 17 19 23 25 26 22 20 17 24 25 22 16 21 23 23 23 21 18 16 13 11 9 9 11 12 11 9 10 6 3 5 6 10 13 14 11 10 11
Wind_Direction
354 331 342 334 278 277 314 248 222 219 210 206 196 208 214 196 217 228 206 213 217 224 212 206 207 206 198 198 194 194 183 183 178 177 179 181 181 183 189 190 191 196 193
295 327 318 318 335 309 265 229 195 192 198 201 202 198 199 204 221 227 224 209 219 238 223 225 213 206 206 201 200 197 201 190 190 184 193 193 198 199 202 204 204 206 207
305 329 323 332 345 332 280 219 205 194 191 194 197 194 205 217 223 214 207 201 210 233 241 235 211 204 208 207 204 200 200 200 199 204 207 208 209 215 218 218 218 220 215
316 317 325 350 350 333 297 207 199 198 198 194 199 223 208 200 209 214 204 206 205 219 258 215 200 205 206 209 211 206 206 209 210 217 219 220 225 229 235 231 227 227 222
291 311 331 350 355 358 87 162 182 190 190 196 218 239 226 217 226 239 236 228 210 207 204 211 200 207 215 211 211 211 213 215 217 222 225 227 228 230 233 233 234 228 228
289 288 314 344 4 28 95 117 148 166 172 181 201 212 224 212 198 263 221 247 214 218 204 212 215 213 214 214 216 220 222 223 225 229 227 234 235 237 235 236 236 232 231
294 307 292 328 4 78 79 112 131 150 158 171 192 220 226 219 218 222 234 196 212 212 204 215 219 218 214 214 222 225 228 231 233 236 241 243 245 245 251 235 242 245 239
283 305 298 284 25 112 141 131 141 153 167 189 210 205 247 230 212 203 189 195 200 199 190 195 220 218 219 224 229 232 234 239 245 248 247 246 245 247 247 246 246 244 243
273 312 294 249 235 175 180 179 173 184 186 189 201 186 304 308 232 200 197 192 200 198 199 198 192 211 227 233 235 241 248 251 252 250 256 258 256 254 251 252 247 256 240
286 311 299 241 217 201 190 205 193 186 187 201 208 245 277 290 239 252 213 210 216 217 219 220 220 211 194 190 229 231 234 239 242 244 254 263 265 263 260 260 260 255 251
268 292 268 274 206 199 204 195 201 200 201 215 239 259 252 235 257 261 252 232 233 232 230 228 235 227 216 210 171 228 213 226 246 268 280 282 282 278 273 268 264 261 259
262 273 262 255 215 211 217 206 216 216 219 224 250 246 244 248 257 253 257 266 249 242 237 236 234 228 225 220 221 209 221 262 275 286 295 294 291 287 282 277 275 273 271
238 267 288 271 201 218 230 225 218 226 226 238 243 248 254 253 253 274 270 272 263 254 250 246 239 240 235 221 225 225 240 273 277 297 305 305 300 293 288 284 281 279 275
237 267 279 282 226 228 247 249 229 228 226 239 245 252 258 264 277 274 279 278 271 257 255 253 256 254 242 231 222 225 241 270 282 298 314 332 328 303 293 295 296 298 300
235 250 263 257 267 244 240 247 243 232 226 235 245 258 258 265 271 281 295 287 266 269 264 267 265 276 252 234 233 220 236 260 271 290 310 338 329 309 300 307 313 313 312
237 246 257 257 249 258 246 248 255 235 236 246 257 267 279 277 276 285 286 285 278 276 278 276 268 271 267 244 230 223 228 255 256 263 316 348 355 332 340 12 1 339 331
239 239 246 252 242 251 254 257 261 259 257 261 271 275 290 298 290 295 293 282 269 276 280 281 264 257 252 249 237 224 239 247 243 262 241 110 67 70 68 49 29 20 26
242 243 243 243 243 246 255 264 270 271 275 282 281 295 292 310 286 290 297 295 279 275 275 275 271 257 244 241 219 232 258 256 259 258 219 208 235 351 5 355 11 19 26
243 242 246 248 250 254 258 260 268 270 274 278 270 268 285 312 281 268 282 289 289 288 283 271 259 259 238 222 221 244 264 254 270 262 229 222 234 258 291 303 303 326 340
244 243 244 249 255 261 263 264 266 269 269 265 264 269 265 309 313 259 266 287 285 282 277 258 239 247 223 213 228 251 260 261 235 228 217 233 248 278 283 305 300 292 306
252 249 248 251 253 254 259 263 265 268 269 269 268 266 259 309 308 280 251 282 281 270 261 248 228 222 216 225 243 254 253 242 245 248 242 249 252 282 282 297 292 287 297
264 262 257 256 258 259 259 258 259 257 254 251 252 251 254 261 325 303 249 268 270 249 245 246 231 227 230 234 225 233 238 241 247 265 252 257 252 283 296 305 286 318 309
267 264 265 260 259 257 257 256 255 253 249 250 251 254 262 269 311 293 284 263 258 244 240 237 240 243 243 246 239 240 241 244 254 272 266 253 252 279 282 302 311 315 299
264 272 273 269 270 270 269 266 266 260 256 258 254 234 277 263 268 275 272 260 253 245 239 237 236 246 251 260 246 242 252 253 253 271 270 277 272 276 271 272 265 306 283
266 263 274 273 274 272 273 274 274 270 261 261 257 241 267 258 244 236 246 240 241 236 232 232 235 241 247 244 236 236 235 240 247 208 252 290 292 277 274 276 277 287 278
276 271 280 277 277 277 275 279 276 269 263 250 245 261 273 267 247 224 217 228 232 230 228 231 233 231 222 215 220 230 231 216 192 209 289 299 299 303 306 302 308 290 295